TimeEST,TemperatureF,Dew PointF,Humidity,Sea Level PressureIn,VisibilityMPH,Wind Direction,Wind SpeedMPH,Gust SpeedMPH,PrecipitationIn,Events,Conditions,WindDirDegrees,DateUTC
12:17 AM,14.7,5.0,65,29.61,10.0,SSW,17.3,23.0,N/A,,Overcast,200,2014-01-30 05:17:00
12:36 AM,14.5,5.5,68,29.61,7.0,SSW,20.7,27.6,N/A,,Mostly Cloudy,200,2014-01-30 05:36:00
12:56 AM,14.7,5.7,68,29.60,10.0,SSW,17.3,21.9,N/A,,Mostly Cloudy,200,2014-01-30 05:56:00
1:17 AM,14.9,6.4,69,29.59,10.0,SSW,17.3,-,N/A,,Mostly Cloudy,200,2014-01-30 06:17:00
1:36 AM,15.3,6.6,69,29.57,10.0,SSW,16.1,-,N/A,,Mostly Cloudy,200,2014-01-30 06:36:00
1:57 AM,15.4,6.8,69,29.56,10.0,SSW,18.4,23.0,N/A,,Scattered Clouds,200,2014-01-30 06:57:00
2:16 AM,15.4,7.2,70,29.55,10.0,SSW,17.3,21.9,N/A,,Clear,200,2014-01-30 07:16:00
2:37 AM,15.8,7.5,70,29.54,10.0,South,18.4,-,N/A,,Clear,190,2014-01-30 07:37:00
2:56 AM,16.3,7.7,69,29.54,10.0,SSW,19.6,-,N/A,,Scattered Clouds,200,2014-01-30 07:56:00
3:17 AM,16.3,8.1,70,29.54,10.0,SSW,16.1,23.0,N/A,,Mostly Cloudy,200,2014-01-30 08:17:00
3:36 AM,16.7,8.4,70,29.55,10.0,SSW,15.0,-,N/A,,Mostly Cloudy,200,2014-01-30 08:36:00
3:57 AM,16.3,8.4,71,29.54,10.0,SSW,15.0,-,N/A,,Scattered Clouds,200,2014-01-30 08:57:00
4:17 AM,16.5,8.4,70,29.53,10.0,South,15.0,-,N/A,,Scattered Clouds,190,2014-01-30 09:17:00
4:36 AM,16.7,8.6,70,29.53,10.0,SSW,15.0,-,N/A,,Mostly Cloudy,200,2014-01-30 09:36:00
4:57 AM,16.7,9.0,72,29.53,10.0,South,13.8,-,N/A,,Mostly Cloudy,190,2014-01-30 09:57:00
5:16 AM,17.1,9.5,72,29.53,10.0,South,12.7,-,N/A,,Overcast,190,2014-01-30 10:16:00
5:37 AM,17.4,9.5,71,29.53,10.0,South,13.8,-,N/A,,Overcast,190,2014-01-30 10:37:00
5:56 AM,17.6,10.0,72,29.52,10.0,South,13.8,-,N/A,,Overcast,190,2014-01-30 10:56:00
6:55 AM,19.4,10.4,68,29.53,10.0,South,11.5,-,N/A,,Overcast,190,2014-01-30 11:55:00
7:50 AM,19.4,12.2,74,29.55,3.0,South,11.5,-,N/A,Snow,Light Snow,190,2014-01-30 12:50:00
8:55 AM,17.6,15.8,93,29.54,1.2,South,10.4,-,N/A,Snow,Light Snow,180,2014-01-30 13:55:00
9:55 AM,19.4,15.8,86,29.55,1.5,SSW,8.1,-,N/A,Snow,Light Snow,200,2014-01-30 14:55:00
10:50 AM,19.4,17.6,93,29.52,1.2,SSW,9.2,-,N/A,Snow,Light Snow,200,2014-01-30 15:50:00
11:50 AM,21.2,17.6,86,29.52,10.0,SSW,9.2,-,N/A,Snow,Light Snow,200,2014-01-30 16:50:00
12:09 PM,21.2,17.6,86,29.52,0.5,SSW,10.4,-,N/A,Snow,Light Snow,200,2014-01-30 17:09:00
12:50 PM,21.2,19.4,93,29.50,0.5,SSW,8.1,-,N/A,Snow,Snow,200,2014-01-30 17:50:00
1:50 PM,21.2,19.4,93,29.47,0.8,SSW,4.6,-,N/A,Snow,Light Snow,200,2014-01-30 18:50:00
2:50 PM,21.2,19.4,93,29.44,0.2,Calm,Calm,-,N/A,Snow,Snow,0,2014-01-30 19:50:00
3:50 PM,19.4,15.8,86,29.45,0.5,NNE,4.6,-,N/A,Snow,Snow,20,2014-01-30 20:50:00
4:10 PM,19.4,15.8,86,29.46,0.2,NNE,10.4,-,N/A,Snow,Snow,20,2014-01-30 21:10:00
4:15 PM,19.4,15.8,86,29.47,0.5,NNE,9.2,-,N/A,Snow,Snow,20,2014-01-30 21:15:00
4:50 PM,17.6,14.0,86,29.49,1.0,North,12.7,19.6,N/A,Snow,Light Snow,10,2014-01-30 21:50:00
5:45 PM,15.8,12.2,86,29.52,1.0,North,12.7,-,N/A,Snow,Light Snow,10,2014-01-30 22:45:00
6:08 PM,15.8,12.2,86,29.52,3.0,NNE,9.2,-,N/A,Snow,Light Snow,20,2014-01-30 23:08:00
6:45 PM,14.0,12.2,93,29.55,4.0,North,5.8,-,N/A,Snow,Light Snow,350,2014-01-30 23:45:00
7:47 PM,12.2,8.6,85,29.58,7.0,NW,10.4,-,N/A,Snow,Light Snow,310,2014-01-31 00:47:00
8:46 PM,10.4,5.0,79,29.63,5.0,WNW,8.1,-,N/A,Snow,Light Snow,290,2014-01-31 01:46:00
9:47 PM,10.4,5.0,79,29.67,5.0,WNW,9.2,-,N/A,Snow,Light Snow,300,2014-01-31 02:47:00
10:17 PM,8.6,3.2,79,29.68,10.0,WNW,9.2,16.1,N/A,,Overcast,300,2014-01-31 03:17:00
10:36 PM,8.1,2.7,79,29.69,10.0,NW,9.2,-,N/A,,Mostly Cloudy,320,2014-01-31 03:36:00
10:57 PM,7.7,2.7,80,29.70,5.0,NW,9.2,-,N/A,Snow,Light Snow,310,2014-01-31 03:57:00
11:16 PM,8.4,3.2,79,29.70,10.0,WNW,6.9,-,N/A,Snow,Light Snow,290,2014-01-31 04:16:00
11:36 PM,8.6,3.2,79,29.72,10.0,WNW,8.1,-,N/A,,Overcast,300,2014-01-31 04:36:00
11:57 PM,8.6,3.0,78,29.72,10.0,WNW,8.1,-,N/A,,Overcast,290,2014-01-31 04:57:00